Weather History for Perry, FL

Change the Weather History Date:

Friday, December 23, 2011

  Actual Average (KCTY) Record (KCTY)
Temperature  
Mean Temperature 68 °F 53 °F  
Max Temperature 72 °F 65 °F 79 °F (1998)
Min Temperature 62 °F 41 °F 26 °F (2000)
Degree Days  
Heating Degree Days 0 12  
Month to date heating degree days 235  
Since 1 July heating degree days 403  
Cooling Degree Days 2 0  
Month to date cooling degree days 14  
Year to date cooling degree days 2616  
Growing Degree Days 18 (Base 50)    
Moisture  
Dew Point 64 °F    
Average Humidity 89    
Maximum Humidity 93    
Minimum Humidity 81    
Precipitation  
Precipitation 0.28 in 0.07 in 0.36 in (2004)
Month to date precipitation 1.96  
Year to date precipitation 47.80  
Sea Level Pressure  
Sea Level Pressure 30.13 in    
Wind  
Wind Speed 8 mph (West)    
Max Wind Speed 14 mph    
Max Gust Speed 24 mph    
T = Trace of Precipitation, MM = Missing Value Source: NWS Daily Summary

Daily Weather History Graph

Daily Weather History Graph

Search for Another Location

Airport:

Trip Planner

Search our weather history database for the weather conditions in past years. The results will help you decide how hot, cold, wet, or windy it might be!

Date:

Astronomy

Dec. 23, 2011 Rise Set
Actual Time 7:27 AM EST 5:39 PM EST
Civil Twilight 7:00 AM EST 6:06 PM EST
Nautical Twilight 6:30 AM EST 6:35 PM EST
Astronomical Twilight 6:01 AM EST 7:05 PM EST
Moon 6:14 AM EST (12/23) 4:48 PM EST (12/23)
Length of Visible Light 11h 05m
Length of Day
10h 12m
Waning Crescent, 1% of the Moon is Illuminated
Dec 23
Waning Crescent
Dec 24
New
Jan 1
First Quarter
Jan 9
Full
Jan 16
Last Quarter

Hourly Weather History & Observations

Time (EST) Temp. Dew Point Humidity Pressure Visibility Wind Dir Wind Speed Gust Speed Precip Events Conditions
12:53 AM 70.0 °F 66.0 °F 87% 30.06 in - South 9.2 mph 17.3 mph N/A   Unknown
1:53 AM 71.1 °F 66.0 °F 84% 30.06 in - South 11.5 mph 19.6 mph N/A   Unknown
2:53 AM 71.1 °F 66.0 °F 84% 30.06 in - South 13.8 mph 24.2 mph N/A   Unknown
3:53 AM 69.1 °F 66.0 °F 90% 30.08 in - West 6.9 mph - N/A   Unknown
4:53 AM 69.1 °F 66.0 °F 90% 30.06 in - SSW 3.5 mph - 0.03 in   Unknown
5:53 AM 70.0 °F 66.9 °F 90% 30.07 in - SSW 10.4 mph - 0.17 in   Unknown
6:53 AM 70.0 °F 66.9 °F 90% 30.09 in - South 11.5 mph - 0.01 in   Unknown
7:53 AM 69.1 °F 66.0 °F 90% 30.10 in - SW 8.1 mph - 0.01 in   Unknown
8:53 AM 68.0 °F 66.0 °F 93% 30.13 in - SW 9.2 mph - N/A   Unknown
9:53 AM 69.1 °F 66.9 °F 93% 30.16 in - SW 5.8 mph - N/A   Unknown
10:53 AM 69.1 °F 66.9 °F 93% 30.17 in - WSW 3.5 mph - N/A   Unknown
11:53 AM 71.1 °F 66.9 °F 87% 30.15 in - Calm Calm - N/A   Unknown
12:53 PM 72.0 °F 66.0 °F 81% 30.12 in - West 4.6 mph - N/A   Unknown
1:53 PM 70.0 °F 64.9 °F 84% 30.11 in - North 6.9 mph - N/A   Unknown
2:53 PM 69.1 °F 66.0 °F 90% 30.11 in - North 4.6 mph - N/A   Unknown
3:53 PM 66.9 °F 64.0 °F 90% 30.12 in - NNW 6.9 mph - N/A   Unknown
4:53 PM 66.0 °F 62.1 °F 87% 30.14 in - North 6.9 mph - N/A   Unknown
5:53 PM 64.0 °F 61.0 °F 90% 30.16 in - NNE 4.6 mph - N/A   Unknown
6:53 PM 63.0 °F 60.1 °F 90% 30.18 in - North 8.1 mph - 0.02 in   Unknown
7:53 PM 63.0 °F 60.1 °F 90% 30.19 in - Variable 3.5 mph - 0.04 in   Unknown
8:53 PM 63.0 °F 60.1 °F 90% 30.19 in - Calm Calm - N/A   Unknown
9:53 PM 63.0 °F 60.1 °F 90% 30.21 in - North 4.6 mph - N/A   Unknown
10:53 PM 63.0 °F 59.0 °F 87% 30.22 in - North 5.8 mph - N/A   Unknown
11:53 PM 62.1 °F 57.0 °F 84% 30.22 in - North 6.9 mph - N/A   Unknown